MRLN5 LICZ-LICZ

Flight info

Callsign MRLN5
Flight time 1h 30m
Altitude 35000
Route PIMOR DCT INROF DCT TISAL STAY1/0030 DCT VESOD DCT NELDA
Aircraft L2J/M-SDE2E3FGHIRWXY/LB1

Departure

Time 2026-04-15 19:40
Airport Sigonella Navy Air Base (LICZ)

Arrival

Time 2026-04-15 21:10
Airport Sigonella Navy Air Base (LICZ)
Time Latitude Longitude Altitude Speed Heading
2026-04-15 19:23 37.40634 14.91409 93 ft 0 kts 278°
2026-04-15 19:35 37.40635 14.91405 93 ft 1 kts 278°
2026-04-15 19:35 37.40648 14.91388 96 ft 5 kts 331°
2026-04-15 19:36 37.40687 14.91381 93 ft 2 kts 342°
2026-04-15 19:36 37.40705 14.91335 93 ft 8 kts 274°
2026-04-15 19:36 37.40714 14.91254 93 ft 11 kts 279°
2026-04-15 19:36 37.40727 14.91151 93 ft 12 kts 278°
2026-04-15 19:37 37.40739 14.91050 93 ft 12 kts 278°
2026-04-15 19:37 37.40741 14.90969 93 ft 3 kts 233°
2026-04-15 19:37 37.40688 14.90947 95 ft 12 kts 188°
2026-04-15 19:37 37.40618 14.90934 92 ft 0 kts 188°
2026-04-15 19:38 37.40615 14.90934 95 ft 1 kts 188°
2026-04-15 19:38 37.40611 14.90933 95 ft 0 kts 188°
2026-04-15 19:39 37.40542 14.90924 93 ft 15 kts 172°
2026-04-15 19:39 37.40502 14.91013 93 ft 0 kts 98°
2026-04-15 19:39 37.40482 14.91181 92 ft 69 kts 98°
2026-04-15 19:39 37.40352 14.92239 249 ft 162 kts 97°
2026-04-15 19:40 37.40160 14.93777 1321 ft 191 kts 97°
2026-04-15 19:40 37.39963 14.95440 2599 ft 200 kts 98°
2026-04-15 19:40 37.39741 14.97271 3267 ft 220 kts 99°
2026-04-15 19:40 37.39500 14.99227 3749 ft 234 kts 98°
2026-04-15 19:41 37.39239 15.01339 4139 ft 251 kts 99°
2026-04-15 19:41 37.38967 15.03517 5082 ft 252 kts 99°
2026-04-15 19:41 37.38692 15.05710 6070 ft 254 kts 100°
2026-04-15 19:41 37.38412 15.07940 6902 ft 263 kts 101°
2026-04-15 19:42 37.38123 15.10229 7814 ft 269 kts 101°
2026-04-15 19:42 37.37826 15.12578 8765 ft 273 kts 101°
2026-04-15 19:42 37.37525 15.14956 9753 ft 278 kts 101°
2026-04-15 19:42 37.37200 15.17406 10437 ft 293 kts 103°
2026-04-15 19:43 37.36747 15.20037 10666 ft 323 kts 105°
2026-04-15 19:43 37.36205 15.22900 10926 ft 348 kts 105°
2026-04-15 19:43 37.35626 15.25918 11582 ft 358 kts 105°
2026-04-15 19:43 37.35043 15.28980 12407 ft 363 kts 105°
2026-04-15 19:44 37.34453 15.32103 13286 ft 369 kts 105°
2026-04-15 19:44 37.33862 15.35258 14133 ft 374 kts 105°
2026-04-15 19:44 37.33265 15.38456 15011 ft 378 kts 105°
2026-04-15 19:44 37.32662 15.41694 15893 ft 382 kts 106°
2026-04-15 19:45 37.32054 15.44961 16745 ft 386 kts 106°
2026-04-15 19:45 37.31438 15.48269 17576 ft 391 kts 106°
2026-04-15 19:45 37.30813 15.51618 18385 ft 396 kts 106°
2026-04-15 19:45 37.30191 15.54961 19413 ft 389 kts 107°
2026-04-15 19:46 37.29588 15.58197 20500 ft 382 kts 107°
2026-04-15 19:46 37.28988 15.61415 21636 ft 375 kts 107°
2026-04-15 19:46 37.28392 15.64606 22808 ft 367 kts 108°
2026-04-15 19:46 37.27815 15.67689 23942 ft 358 kts 109°
2026-04-15 19:47 37.27259 15.70654 24971 ft 349 kts 109°
2026-04-15 19:47 37.26710 15.73581 26058 ft 338 kts 110°
2026-04-15 19:47 37.26180 15.76407 27174 ft 326 kts 111°
2026-04-15 19:47 37.25671 15.79120 28337 ft 313 kts 111°
2026-04-15 19:48 37.25181 15.81726 29471 ft 300 kts 112°
2026-04-15 19:48 37.24709 15.84229 30398 ft 291 kts 113°
2026-04-15 19:48 37.24245 15.86668 31079 ft 288 kts 113°
2026-04-15 19:48 37.23759 15.89167 31239 ft 303 kts 112°
2026-04-15 19:49 37.23245 15.91794 31387 ft 317 kts 112°
2026-04-15 19:49 37.22709 15.94549 31528 ft 332 kts 111°
2026-04-15 19:49 37.22152 15.97430 31662 ft 347 kts 111°
2026-04-15 19:49 37.21573 16.00441 31767 ft 361 kts 111°
2026-04-15 19:50 37.20975 16.03559 31898 ft 374 kts 111°
2026-04-15 19:50 37.20355 16.06792 32013 ft 387 kts 111°
2026-04-15 19:50 37.19720 16.10106 32120 ft 400 kts 110°
2026-04-15 19:50 37.19063 16.13531 32113 ft 408 kts 106°
2026-04-15 19:51 37.18404 16.17002 32539 ft 410 kts 109°
2026-04-15 19:51 37.17732 16.20515 32643 ft 419 kts 109°
2026-04-15 19:51 37.16337 16.27734 32821 ft 437 kts 109°
2026-04-15 19:52 37.15608 16.31499 33021 ft 442 kts 109°
2026-04-15 19:52 37.14882 16.35248 33335 ft 443 kts 109°
2026-04-15 19:52 37.14154 16.39004 33722 ft 444 kts 109°
2026-04-15 19:52 37.13425 16.42759 34099 ft 443 kts 109°
2026-04-15 19:53 37.12703 16.46466 34408 ft 444 kts 109°
2026-04-15 19:53 37.11964 16.50242 34677 ft 446 kts 109°
2026-04-15 19:53 37.11222 16.54031 34939 ft 448 kts 109°
2026-04-15 19:53 37.10473 16.57842 34936 ft 452 kts 109°
2026-04-15 19:54 37.08971 16.65483 34945 ft 449 kts 109°
2026-04-15 19:54 37.07484 16.73022 34943 ft 444 kts 109°
2026-04-15 19:55 37.05696 16.80361 34948 ft 435 kts 119°
2026-04-15 19:55 37.02562 16.86717 34956 ft 427 kts 130°
2026-04-15 19:56 36.99058 16.92731 34949 ft 428 kts 130°
2026-04-15 19:56 36.95559 16.98762 34945 ft 429 kts 130°
2026-04-15 19:57 36.92059 17.04839 34949 ft 431 kts 130°
2026-04-15 19:57 36.88558 17.10927 34944 ft 432 kts 130°
2026-04-15 19:58 36.85041 17.17036 34949 ft 434 kts 130°
2026-04-15 19:58 36.81529 17.23124 34959 ft 435 kts 130°
2026-04-15 19:59 36.77990 17.29249 34955 ft 435 kts 130°
2026-04-15 19:59 36.74442 17.35378 34954 ft 435 kts 130°
2026-04-15 20:00 36.70894 17.41493 34937 ft 435 kts 130°
2026-04-15 20:00 36.69155 17.44492 34935 ft 417 kts 130°
2026-04-15 20:00 36.67493 17.47363 34943 ft 400 kts 130°
2026-04-15 20:01 36.65894 17.50118 34939 ft 385 kts 130°
2026-04-15 20:01 36.64354 17.52767 34937 ft 370 kts 130°
2026-04-15 20:01 36.62869 17.55316 34941 ft 357 kts 130°
2026-04-15 20:01 36.61436 17.57772 34940 ft 344 kts 131°
2026-04-15 20:02 36.60054 17.60138 34940 ft 332 kts 131°
2026-04-15 20:02 36.58725 17.62413 34940 ft 320 kts 131°
2026-04-15 20:02 36.56164 17.66785 34956 ft 311 kts 131°
2026-04-15 20:03 36.53570 17.71203 34979 ft 321 kts 131°
2026-04-15 20:03 36.50944 17.75688 34948 ft 319 kts 131°
2026-04-15 20:04 36.47958 17.79518 34973 ft 305 kts 155°
2026-04-15 20:04 36.45967 17.80445 34964 ft 302 kts 169°
2026-04-15 20:04 36.43920 17.80700 34971 ft 300 kts 182°
2026-04-15 20:05 36.41833 17.80269 34967 ft 302 kts 197°
2026-04-15 20:05 36.39936 17.79119 34966 ft 307 kts 212°
2026-04-15 20:05 36.38370 17.77282 34968 ft 315 kts 229°
2026-04-15 20:05 36.37308 17.74912 34969 ft 325 kts 245°
2026-04-15 20:06 36.36860 17.72122 34973 ft 338 kts 263°
2026-04-15 20:06 36.37127 17.69183 34981 ft 349 kts 279°
2026-04-15 20:06 36.38126 17.66386 34968 ft 361 kts 297°
2026-04-15 20:06 36.39575 17.63818 34962 ft 365 kts 303°
2026-04-15 20:07 36.41454 17.61663 34953 ft 375 kts 327°
2026-04-15 20:07 36.43890 17.60479 34964 ft 379 kts 348°
2026-04-15 20:07 36.46517 17.60366 34959 ft 379 kts 10°
2026-04-15 20:07 36.49003 17.61359 34961 ft 374 kts 33°
2026-04-15 20:08 36.51009 17.63331 34961 ft 364 kts 55°
2026-04-15 20:08 36.52297 17.65964 34969 ft 352 kts 76°
2026-04-15 20:08 36.52784 17.68874 34968 ft 339 kts 96°
2026-04-15 20:08 36.52536 17.71740 34966 ft 328 kts 112°
2026-04-15 20:09 36.51652 17.74296 34975 ft 319 kts 126°
2026-04-15 20:09 36.50439 17.76595 34958 ft 317 kts 130°
2026-04-15 20:09 36.49002 17.78642 34949 ft 311 kts 146°
2026-04-15 20:09 36.47152 17.79973 34973 ft 306 kts 161°
2026-04-15 20:10 36.45102 17.80648 34970 ft 305 kts 174°
2026-04-15 20:10 36.42985 17.80660 34970 ft 306 kts 188°
2026-04-15 20:10 36.40931 17.79948 34964 ft 309 kts 202°
2026-04-15 20:10 36.39064 17.78618 34966 ft 313 kts 214°
2026-04-15 20:11 36.37590 17.76654 34961 ft 321 kts 235°
2026-04-15 20:11 36.36787 17.74034 35002 ft 332 kts 254°
2026-04-15 20:11 36.36670 17.71135 34965 ft 343 kts 269°
2026-04-15 20:11 36.37146 17.68211 34965 ft 352 kts 284°
2026-04-15 20:12 36.38324 17.65509 34981 ft 360 kts 299°
2026-04-15 20:12 36.39796 17.62986 34955 ft 362 kts 303°
2026-04-15 20:12 36.41625 17.60813 34945 ft 370 kts 326°
2026-04-15 20:12 36.43992 17.59554 34967 ft 374 kts 346°
2026-04-15 20:13 36.46581 17.59303 34960 ft 374 kts
2026-04-15 20:13 36.49070 17.60116 34962 ft 370 kts 26°
2026-04-15 20:13 36.53849 17.62529 34966 ft 372 kts 23°
2026-04-15 20:14 36.58701 17.64849 34962 ft 375 kts 23°
2026-04-15 20:14 36.63573 17.67212 34955 ft 378 kts 30°
2026-04-15 20:15 36.65622 17.69228 34971 ft 377 kts 58°
2026-04-15 20:15 36.66509 17.71069 34976 ft 376 kts 74°
2026-04-15 20:15 36.67088 17.74226 34979 ft 376 kts 94°
2026-04-15 20:15 36.66823 17.77453 34972 ft 377 kts 110°
2026-04-15 20:16 36.65753 17.80426 34977 ft 379 kts 128°
2026-04-15 20:16 36.63941 17.82814 34969 ft 383 kts 146°
2026-04-15 20:16 36.61567 17.84339 34972 ft 389 kts 164°
2026-04-15 20:16 36.58871 17.84850 34990 ft 398 kts 181°
2026-04-15 20:17 36.56112 17.84266 34968 ft 409 kts 198°
2026-04-15 20:17 36.53556 17.82629 34966 ft 422 kts 214°
2026-04-15 20:17 36.51528 17.79930 34960 ft 438 kts 235°
2026-04-15 20:17 36.50387 17.76359 34972 ft 455 kts 256°
2026-04-15 20:18 36.50310 17.72388 34987 ft 467 kts 273°
2026-04-15 20:18 36.50904 17.68407 34975 ft 468 kts 276°
2026-04-15 20:18 36.52011 17.60451 34946 ft 466 kts 274°
2026-04-15 20:19 36.52985 17.52501 34947 ft 464 kts 274°
2026-04-15 20:19 36.53916 17.44619 34955 ft 463 kts 274°
2026-04-15 20:20 36.55365 17.36784 34971 ft 470 kts 285°
2026-04-15 20:20 36.57722 17.29176 34958 ft 472 kts 287°
2026-04-15 20:21 36.60111 17.21576 34954 ft 471 kts 286°
2026-04-15 20:21 36.62446 17.13947 34955 ft 471 kts 286°
2026-04-15 20:22 36.64742 17.06313 34952 ft 471 kts 286°
2026-04-15 20:22 36.67026 16.98671 34952 ft 471 kts 285°
2026-04-15 20:23 36.69291 16.91071 34950 ft 471 kts 285°
2026-04-15 20:23 36.71572 16.83407 34948 ft 471 kts 285°
2026-04-15 20:24 36.74984 16.71903 34950 ft 471 kts 285°
2026-04-15 20:25 36.77252 16.64230 34954 ft 472 kts 286°
2026-04-15 20:25 36.79510 16.56570 34951 ft 473 kts 285°
2026-04-15 20:26 36.81775 16.48864 34947 ft 473 kts 285°
2026-04-15 20:26 36.84038 16.41143 34948 ft 474 kts 285°
2026-04-15 20:27 36.86296 16.33419 34961 ft 474 kts 286°
2026-04-15 20:27 36.88557 16.25664 34950 ft 475 kts 286°
2026-04-15 20:28 36.90807 16.17922 34944 ft 475 kts 286°
2026-04-15 20:28 36.93045 16.10204 34947 ft 475 kts 286°
2026-04-15 20:28 36.94173 16.06303 34582 ft 480 kts 285°
2026-04-15 20:29 36.95308 16.02370 33817 ft 479 kts 285°
2026-04-15 20:29 36.96438 15.98453 32896 ft 479 kts 285°
2026-04-15 20:29 36.97569 15.94524 31948 ft 479 kts 286°
2026-04-15 20:29 36.98695 15.90607 30982 ft 480 kts 286°
2026-04-15 20:30 36.99825 15.86670 29986 ft 482 kts 286°
2026-04-15 20:30 37.00958 15.82714 28727 ft 484 kts 286°
2026-04-15 20:30 37.02094 15.78747 27542 ft 484 kts 287°
2026-04-15 20:30 37.03231 15.74770 26301 ft 485 kts 287°
2026-04-15 20:31 37.04365 15.70800 25275 ft 482 kts 287°
2026-04-15 20:31 37.05483 15.66882 24378 ft 475 kts 287°
2026-04-15 20:31 37.06588 15.63006 23460 ft 469 kts 288°
2026-04-15 20:31 37.07676 15.59183 22428 ft 463 kts 288°
2026-04-15 20:32 37.08746 15.55415 21496 ft 455 kts 288°
2026-04-15 20:32 37.09783 15.51757 20613 ft 448 kts 288°
2026-04-15 20:32 37.10817 15.48104 19740 ft 441 kts 288°
2026-04-15 20:32 37.11837 15.44497 18884 ft 435 kts 288°
2026-04-15 20:33 37.12839 15.40945 17995 ft 430 kts 288°
2026-04-15 20:33 37.14846 15.33820 16127 ft 418 kts 288°
2026-04-15 20:33 37.15806 15.30407 15284 ft 413 kts 288°
2026-04-15 20:34 37.16757 15.27022 14424 ft 408 kts 288°
2026-04-15 20:34 37.17692 15.23686 13623 ft 403 kts 288°
2026-04-15 20:34 37.18618 15.20380 12729 ft 399 kts 288°
2026-04-15 20:34 37.19530 15.17122 11901 ft 394 kts 288°
2026-04-15 20:35 37.20431 15.13895 11088 ft 390 kts 288°
2026-04-15 20:35 37.21312 15.10742 10817 ft 372 kts 288°
2026-04-15 20:35 37.22147 15.07748 10642 ft 354 kts 288°
2026-04-15 20:35 37.22941 15.04897 10498 ft 339 kts 288°
2026-04-15 20:36 37.23701 15.02167 10356 ft 326 kts 288°
2026-04-15 20:36 37.24328 14.99457 10073 ft 325 kts 281°
2026-04-15 20:36 37.24741 14.96621 9849 ft 344 kts 278°
2026-04-15 20:36 37.25115 14.93620 9573 ft 347 kts 278°
2026-04-15 20:37 37.25486 14.90631 9312 ft 354 kts 278°
2026-04-15 20:37 37.25881 14.87541 9164 ft 359 kts 278°
2026-04-15 20:37 37.26289 14.84458 9214 ft 358 kts 278°
2026-04-15 20:37 37.26706 14.81367 9203 ft 360 kts 278°
2026-04-15 20:38 37.27128 14.78274 9211 ft 359 kts 279°
2026-04-15 20:38 37.27554 14.75174 9206 ft 360 kts 279°
2026-04-15 20:38 37.27981 14.72079 9216 ft 360 kts 279°
2026-04-15 20:38 37.28402 14.69019 9203 ft 360 kts 279°
2026-04-15 20:39 37.28827 14.65920 9211 ft 360 kts 279°
2026-04-15 20:39 37.29252 14.62823 9230 ft 360 kts 279°
2026-04-15 20:39 37.29678 14.59709 9241 ft 361 kts 279°
2026-04-15 20:39 37.30102 14.56598 9209 ft 359 kts 279°
2026-04-15 20:40 37.30517 14.53552 8937 ft 350 kts 279°
2026-04-15 20:40 37.31105 14.50619 8029 ft 347 kts 295°
2026-04-15 20:40 37.32517 14.48218 7037 ft 340 kts 320°
2026-04-15 20:40 37.34470 14.46697 6642 ft 317 kts 339°
2026-04-15 20:41 37.36502 14.46000 6381 ft 292 kts 355°
2026-04-15 20:41 37.38429 14.46047 6191 ft 264 kts 20°
2026-04-15 20:41 37.39935 14.47071 6101 ft 232 kts 43°
2026-04-15 20:41 37.40947 14.48483 5952 ft 206 kts 57°
2026-04-15 20:42 37.41599 14.49961 5823 ft 186 kts 70°
2026-04-15 20:42 37.41883 14.51460 5705 ft 168 kts 82°
2026-04-15 20:42 37.42022 14.52870 5571 ft 153 kts 84°
2026-04-15 20:42 37.42144 14.54216 5170 ft 157 kts 83°
2026-04-15 20:43 37.42265 14.55572 4870 ft 154 kts 83°
2026-04-15 20:43 37.42381 14.56862 4669 ft 146 kts 84°
2026-04-15 20:43 37.42492 14.58111 4484 ft 143 kts 84°
2026-04-15 20:43 37.42603 14.59360 4393 ft 142 kts 83°
2026-04-15 20:44 37.42712 14.60586 4274 ft 141 kts 84°
2026-04-15 20:44 37.42824 14.61849 4229 ft 148 kts 83°
2026-04-15 20:44 37.42938 14.63148 4159 ft 150 kts 83°
2026-04-15 20:44 37.43053 14.64444 4087 ft 149 kts 84°
2026-04-15 20:45 37.43169 14.65749 3976 ft 155 kts 84°
2026-04-15 20:45 37.43127 14.67120 3806 ft 152 kts 95°
2026-04-15 20:45 37.43002 14.68494 3384 ft 161 kts 95°
2026-04-15 20:45 37.42870 14.69903 3082 ft 159 kts 96°
2026-04-15 20:46 37.42741 14.71264 2854 ft 154 kts 96°
2026-04-15 20:46 37.42621 14.72573 2665 ft 147 kts 96°
2026-04-15 20:46 37.42506 14.73813 2527 ft 141 kts 96°
2026-04-15 20:46 37.42368 14.75033 2381 ft 140 kts 97°
2026-04-15 20:47 37.42229 14.76233 2241 ft 139 kts 97°
2026-04-15 20:47 37.42088 14.77439 2086 ft 137 kts 97°
2026-04-15 20:47 37.41950 14.78628 1898 ft 139 kts 97°
2026-04-15 20:47 37.41809 14.79835 1722 ft 140 kts 97°
2026-04-15 20:48 37.41667 14.81055 1544 ft 142 kts 98°
2026-04-15 20:48 37.41526 14.82268 1364 ft 142 kts 98°
2026-04-15 20:48 37.41383 14.83490 1195 ft 139 kts 98°
2026-04-15 20:48 37.41247 14.84648 1021 ft 129 kts 98°
2026-04-15 20:49 37.41119 14.85742 847 ft 127 kts 98°
2026-04-15 20:49 37.40990 14.86853 689 ft 127 kts 99°
2026-04-15 20:49 37.40865 14.87923 488 ft 122 kts 98°
2026-04-15 20:49 37.40726 14.89019 642 ft 132 kts 99°
2026-04-15 20:50 37.40568 14.90198 1366 ft 152 kts 99°
2026-04-15 20:50 37.40380 14.91679 1977 ft 190 kts 98°
2026-04-15 20:50 37.40171 14.93286 2818 ft 190 kts 97°
2026-04-15 20:50 37.39956 14.94948 3006 ft 195 kts 97°
2026-04-15 20:51 37.39734 14.96637 2993 ft 194 kts 97°
2026-04-15 20:51 37.39512 14.98306 2995 ft 193 kts 98°
2026-04-15 20:51 37.39287 14.99984 2999 ft 203 kts 97°
2026-04-15 20:51 37.39021 15.01791 2995 ft 214 kts 99°
2026-04-15 20:52 37.38517 15.03611 2994 ft 240 kts 124°
2026-04-15 20:52 37.37129 15.04918 2988 ft 261 kts 156°
2026-04-15 20:52 37.35316 15.05280 2996 ft 270 kts 183°
2026-04-15 20:52 37.33552 15.04503 3534 ft 278 kts 212°
2026-04-15 20:53 37.32179 15.02779 3959 ft 284 kts 239°
2026-04-15 20:53 37.31621 15.00437 3994 ft 281 kts 269°
2026-04-15 20:53 37.31683 14.98004 4001 ft 277 kts 275°
2026-04-15 20:53 37.31829 14.95598 3990 ft 276 kts 276°
2026-04-15 20:54 37.31983 14.93193 4001 ft 276 kts 276°
2026-04-15 20:54 37.32128 14.90793 4013 ft 276 kts 275°
2026-04-15 20:54 37.32264 14.88386 4009 ft 277 kts 274°
2026-04-15 20:54 37.32393 14.85965 4016 ft 278 kts 274°
2026-04-15 20:55 37.32519 14.83530 4012 ft 280 kts 274°
2026-04-15 20:55 37.32600 14.81911 4006 ft 280 kts 274°
2026-04-15 20:55 37.32720 14.79476 3997 ft 279 kts 274°
2026-04-15 20:55 37.32879 14.76228 4018 ft 277 kts 274°
2026-04-15 20:56 37.32957 14.74626 4004 ft 277 kts 274°
2026-04-15 20:56 37.33072 14.72255 4002 ft 267 kts 274°
2026-04-15 20:56 37.33179 14.69977 3991 ft 255 kts 274°
2026-04-15 20:56 37.33227 14.67792 3995 ft 248 kts 266°
2026-04-15 20:57 37.33057 14.65639 4009 ft 248 kts 263°
2026-04-15 20:57 37.32847 14.63484 4012 ft 248 kts 263°
2026-04-15 20:57 37.32644 14.61329 4017 ft 249 kts 263°
2026-04-15 20:57 37.32453 14.59168 4016 ft 249 kts 264°
2026-04-15 20:58 37.32270 14.57006 4023 ft 247 kts 264°
2026-04-15 20:58 37.32097 14.54903 4018 ft 238 kts 264°
2026-04-15 20:58 37.31930 14.52866 4012 ft 231 kts 264°
2026-04-15 20:58 37.31763 14.50876 4019 ft 226 kts 264°
2026-04-15 20:59 37.31739 14.48944 3996 ft 219 kts 286°
2026-04-15 20:59 37.32480 14.47390 4024 ft 202 kts 322°
2026-04-15 20:59 37.33661 14.46545 4029 ft 192 kts 347°
2026-04-15 20:59 37.34939 14.46253 4039 ft 188 kts 357°
2026-04-15 21:00 37.36260 14.46074 4045 ft 195 kts 358°
2026-04-15 21:00 37.37580 14.45896 4033 ft 185 kts 358°
2026-04-15 21:00 37.38810 14.45728 4015 ft 171 kts 358°
2026-04-15 21:00 37.39978 14.45582 4026 ft 168 kts
2026-04-15 21:01 37.41015 14.46060 4021 ft 158 kts 47°
2026-04-15 21:01 37.41511 14.47262 4012 ft 158 kts 83°
2026-04-15 21:01 37.41635 14.48627 4011 ft 157 kts 83°
2026-04-15 21:01 37.41763 14.50001 4012 ft 159 kts 83°
2026-04-15 21:02 37.41889 14.51381 4010 ft 158 kts 83°
2026-04-15 21:02 37.42013 14.52750 4003 ft 157 kts 83°
2026-04-15 21:02 37.42134 14.54109 3996 ft 155 kts 83°
2026-04-15 21:02 37.42253 14.55435 4006 ft 154 kts 83°
2026-04-15 21:03 37.42373 14.56778 4003 ft 155 kts 84°
2026-04-15 21:03 37.42495 14.58136 3975 ft 157 kts 83°
2026-04-15 21:03 37.42617 14.59513 4010 ft 158 kts 84°
2026-04-15 21:03 37.42739 14.60888 4028 ft 157 kts 83°
2026-04-15 21:04 37.42859 14.62256 3993 ft 159 kts 83°
2026-04-15 21:04 37.42983 14.63651 3736 ft 163 kts 83°
2026-04-15 21:04 37.43107 14.65056 3483 ft 160 kts 83°
2026-04-15 21:04 37.43185 14.66448 3225 ft 159 kts 92°
2026-04-15 21:05 37.43075 14.67822 2968 ft 158 kts 95°
2026-04-15 21:05 37.42947 14.69186 2801 ft 152 kts 96°
2026-04-15 21:05 37.42819 14.70498 2813 ft 150 kts 96°
2026-04-15 21:05 37.42698 14.71781 2824 ft 147 kts 95°
2026-04-15 21:06 37.42582 14.73029 2806 ft 140 kts 95°
2026-04-15 21:06 37.42462 14.74236 2804 ft 138 kts 97°
2026-04-15 21:06 37.42323 14.75433 2764 ft 138 kts 97°
2026-04-15 21:06 37.42184 14.76627 2692 ft 140 kts 97°
2026-04-15 21:07 37.42043 14.77844 2495 ft 139 kts 97°
2026-04-15 21:07 37.41905 14.79011 2244 ft 132 kts 97°
2026-04-15 21:07 37.41773 14.80147 2008 ft 132 kts 97°
2026-04-15 21:07 37.41642 14.81271 1762 ft 131 kts 97°
2026-04-15 21:08 37.41510 14.82403 1456 ft 128 kts 98°
2026-04-15 21:08 37.41381 14.83510 1170 ft 126 kts 98°
2026-04-15 21:08 37.41253 14.84597 883 ft 125 kts 98°
2026-04-15 21:08 37.41130 14.85654 653 ft 119 kts 98°
2026-04-15 21:09 37.40987 14.86906 588 ft 165 kts 99°
2026-04-15 21:09 37.40818 14.88307 428 ft 154 kts 99°
2026-04-15 21:09 37.40673 14.89549 265 ft 134 kts 98°
2026-04-15 21:09 37.40545 14.90644 109 ft 123 kts 98°
2026-04-15 21:10 37.40423 14.91683 93 ft 104 kts 98°
2026-04-15 21:10 37.40360 14.92223 93 ft 43 kts 98°
2026-04-15 21:10 37.40323 14.92537 94 ft 19 kts 98°
2026-04-15 21:10 37.40310 14.92651 93 ft 13 kts 96°
2026-04-15 21:11 37.40355 14.92711 92 ft 9 kts 356°
2026-04-15 21:11 37.40417 14.92691 94 ft 0 kts 330°
2026-04-15 21:11 37.40442 14.92689 95 ft 3 kts 33°
2026-04-15 21:11 37.40474 14.92773 93 ft 16 kts 68°
2026-04-15 21:12 37.40519 14.92911 93 ft 16 kts 67°
2026-04-15 21:12 37.40521 14.93035 95 ft 14 kts 110°
2026-04-15 21:12 37.40548 14.93089 93 ft 9 kts 26°
2026-04-15 21:12 37.40604 14.93121 95 ft 5 kts
2026-04-15 21:13 37.40625 14.93106 94 ft 2 kts 313°
2026-04-15 21:13 37.40630 14.93094 95 ft 2 kts 298°
2026-04-15 21:13 37.40631 14.93091 95 ft 0 kts 299°